Private Wetterstation Sandau
Wetterdaten: Woche 08.10.12 - 14.10.12 (KW41)
Datum Zeit Temp. A. Feuchte A. Luftdruck Regen Wind Richtung Taupunkt Windchill
08.10.2012 00:00 7,8 C 88 % 1019,3 hPa 0,0 l/m 12,7 km/h (3 Bft) W 5,9 C 5,7 C
08.10.2012 01:00 8,1 C 88 % 1019,8 hPa 0,0 l/m 11,1 km/h (2 Bft) W-SW 6,2 C 6,4 C
08.10.2012 02:00 8,3 C 87 % 1019,9 hPa 0,0 l/m 10,2 km/h (2 Bft) W 6,2 C 6,7 C
08.10.2012 03:00 8,3 C 87 % 1019,9 hPa 0,0 l/m 12,4 km/h (3 Bft) W 6,2 C 6,3 C
08.10.2012 04:00 8,3 C 87 % 1019,8 hPa 0,0 l/m 6,8 km/h (2 Bft) W-SW 6,2 C 7,4 C
08.10.2012 05:00 7,8 C 88 % 1019,7 hPa 0,0 l/m 7,8 km/h (2 Bft) W-SW 5,9 C 6,5 C
08.10.2012 06:00 7,5 C 89 % 1019,5 hPa 0,0 l/m 7,3 km/h (2 Bft) W-SW 5,8 C 6,4 C
08.10.2012 07:00 7,5 C 89 % 1019,5 hPa 0,0 l/m 9,2 km/h (2 Bft) W-SW 5,9 C 6,0 C
08.10.2012 08:00 8,0 C 89 % 1019,9 hPa 0,0 l/m 8,0 km/h (2 Bft) W 6,2 C 6,9 C
08.10.2012 09:00 8,9 C 86 % 1020,1 hPa 0,0 l/m 5,5 km/h (1 Bft) W 6,6 C 8,3 C
08.10.2012 10:00 9,9 C 83 % 1020,1 hPa 0,0 l/m 7,6 km/h (2 Bft) W 7,2 C 9,5 C
08.10.2012 11:00 11,3 C 80 % 1020,1 hPa 0,0 l/m 9,2 km/h (2 Bft) W 8,0 C 11,3 C
08.10.2012 12:00 13,0 C 74 % 1019,8 hPa 0,0 l/m 9,0 km/h (2 Bft) W-SW 8,4 C 13,0 C
08.10.2012 13:00 13,4 C 70 % 1019,4 hPa 0,0 l/m 9,3 km/h (2 Bft) W-NW 8,1 C 13,4 C
08.10.2012 14:00 13,4 C 69 % 1018,8 hPa 0,0 l/m 8,4 km/h (2 Bft) W 7,9 C 13,4 C
08.10.2012 15:00 13,2 C 69 % 1018,2 hPa 0,0 l/m 6,2 km/h (2 Bft) W-SW 7,7 C 13,2 C
08.10.2012 16:00 12,7 C 70 % 1017,3 hPa 0,0 l/m 8,1 km/h (2 Bft) W-SW 7,3 C 12,7 C
08.10.2012 17:00 12,4 C 70 % 1016,6 hPa 0,0 l/m 6,6 km/h (2 Bft) W-SW 7,0 C 12,4 C
08.10.2012 18:00 11,2 C 73 % 1016,0 hPa 0,0 l/m 4,6 km/h (1 Bft) W-SW 6,6 C 11,2 C
08.10.2012 19:00 9,8 C 76 % 1015,6 hPa 0,0 l/m 4,7 km/h (1 Bft) SW 5,7 C 9,5 C
08.10.2012 20:00 8,6 C 78 % 1015,2 hPa 0,0 l/m 2,8 km/h (1 Bft) W-SW 5,0 C 8,5 C
08.10.2012 21:00 7,3 C 81 % 1014,4 hPa 0,0 l/m 1,0 km/h (0 Bft) S-SW 4,3 C 7,3 C
08.10.2012 22:00 5,9 C 84 % 1013,7 hPa 0,0 l/m 1,3 km/h (1 Bft) S 3,4 C 5,9 C
08.10.2012 23:00 5,1 C 87 % 1013,1 hPa 0,0 l/m 0,8 km/h (0 Bft) S 3,1 C 5,1 C
09.10.2012 00:00 4,6 C 88 % 1012,0 hPa 0,0 l/m 1,6 km/h (1 Bft) S-SO 2,8 C 4,6 C
09.10.2012 01:00 4,3 C 89 % 1010,9 hPa 0,0 l/m 1,4 km/h (1 Bft) S-SO 2,6 C 4,3 C
09.10.2012 02:00 3,7 C 90 % 1010,2 hPa 0,0 l/m 0,4 km/h (0 Bft) S 2,2 C 3,7 C
09.10.2012 03:00 3,3 C 90 % 1009,5 hPa 0,0 l/m 0,1 km/h (0 Bft) S 1,8 C 3,3 C
09.10.2012 04:00 3,2 C 90 % 1009,0 hPa 0,0 l/m 1,6 km/h (1 Bft) W-SW 1,8 C 3,0 C
09.10.2012 05:00 3,4 C 91 % 1008,6 hPa 0,0 l/m 4,9 km/h (1 Bft) W-SW 2,1 C 2,6 C
09.10.2012 06:00 4,3 C 91 % 1008,3 hPa 0,0 l/m 7,2 km/h (2 Bft) W-SW 3,0 C 2,7 C
09.10.2012 07:00 5,2 C 91 % 1008,3 hPa 0,0 l/m 6,9 km/h (2 Bft) W 3,8 C 3,9 C
09.10.2012 08:00 5,2 C 89 % 1008,9 hPa 0,0 l/m 5,1 km/h (1 Bft) W-NW 3,6 C 4,3 C
09.10.2012 09:00 6,5 C 89 % 1009,4 hPa 0,0 l/m 8,4 km/h (2 Bft) W 4,8 C 5,0 C
09.10.2012 10:00 8,6 C 85 % 1009,8 hPa 0,0 l/m 9,0 km/h (2 Bft) W-NW 6,2 C 7,2 C
09.10.2012 11:00 10,3 C 75 % 1010,1 hPa 0,0 l/m 14,5 km/h (3 Bft) W-NW 6,1 C 9,8 C
09.10.2012 12:00 11,8 C 66 % 1010,1 hPa 0,0 l/m 14,5 km/h (3 Bft) W-NW 5,6 C 11,8 C
09.10.2012 13:00 12,6 C 62 % 1010,1 hPa 0,0 l/m 16,4 km/h (3 Bft) W-NW 5,5 C 12,6 C
09.10.2012 14:00 13,0 C 59 % 1010,4 hPa 0,0 l/m 17,4 km/h (3 Bft) W-NW 5,0 C 13,0 C
09.10.2012 15:00 12,3 C 61 % 1010,6 hPa 0,0 l/m 15,9 km/h (3 Bft) W 5,0 C 12,3 C
09.10.2012 16:00 12,1 C 63 % 1011,0 hPa 0,0 l/m 13,7 km/h (3 Bft) W 5,2 C 12,1 C
09.10.2012 17:00 11,7 C 67 % 1011,4 hPa 0,0 l/m 12,2 km/h (2 Bft) NW 5,8 C 11,7 C
09.10.2012 18:00 10,8 C 67 % 1012,0 hPa 0,0 l/m 9,5 km/h (2 Bft) NW 4,9 C 10,8 C
09.10.2012 19:00 9,2 C 72 % 1012,7 hPa 0,0 l/m 5,9 km/h (2 Bft) W-NW 4,4 C 8,5 C
09.10.2012 20:00 8,4 C 75 % 1013,2 hPa 0,0 l/m 5,3 km/h (1 Bft) W 4,2 C 7,9 C
09.10.2012 21:00 7,4 C 79 % 1013,6 hPa 0,0 l/m 6,2 km/h (2 Bft) W-NW 4,0 C 6,6 C
09.10.2012 22:00 6,9 C 81 % 1013,7 hPa 0,0 l/m 5,9 km/h (2 Bft) W 3,9 C 6,0 C
09.10.2012 23:00 6,4 C 83 % 1013,9 hPa 0,0 l/m 5,5 km/h (1 Bft) W 3,7 C 5,5 C
10.10.2012 00:00 5,9 C 85 % 1014,0 hPa 0,0 l/m 4,8 km/h (1 Bft) W-SW 3,5 C 5,2 C
10.10.2012 01:00 5,3 C 86 % 1014,2 hPa 0,0 l/m 4,2 km/h (1 Bft) W-NW 3,2 C 4,8 C
10.10.2012 02:00 5,0 C 87 % 1014,3 hPa 0,0 l/m 4,0 km/h (1 Bft) W 3,1 C 4,6 C
10.10.2012 03:00 4,7 C 88 % 1014,3 hPa 0,0 l/m 3,8 km/h (1 Bft) W 2,9 C 4,2 C
10.10.2012 04:00 4,5 C 89 % 1014,2 hPa 0,0 l/m 3,5 km/h (1 Bft) W 2,9 C 3,8 C
10.10.2012 05:00 4,6 C 90 % 1013,9 hPa 0,0 l/m 2,6 km/h (1 Bft) W-SW 3,1 C 4,3 C
10.10.2012 06:00 5,1 C 91 % 1013,6 hPa 0,0 l/m 2,5 km/h (1 Bft) W 3,7 C 4,9 C
10.10.2012 07:00 5,6 C 90 % 1013,5 hPa 0,0 l/m 4,5 km/h (1 Bft) W 4,1 C 5,1 C
10.10.2012 08:00 6,1 C 90 % 1013,6 hPa 0,0 l/m 5,2 km/h (1 Bft) W-SW 4,5 C 5,2 C
10.10.2012 09:00 6,9 C 89 % 1013,8 hPa 0,0 l/m 6,7 km/h (2 Bft) W-NW 5,2 C 5,9 C
10.10.2012 10:00 7,4 C 89 % 1014,1 hPa 0,5 l/m 7,3 km/h (2 Bft) W-NW 5,6 C 6,4 C
10.10.2012 11:00 8,3 C 89 % 1014,2 hPa 0,0 l/m 7,9 km/h (2 Bft) W-NW 6,5 C 7,1 C
10.10.2012 12:00 9,7 C 84 % 1014,1 hPa 0,0 l/m 10,0 km/h (2 Bft) W 7,1 C 8,8 C
10.10.2012 13:00 10,6 C 78 % 1013,9 hPa 0,0 l/m 7,8 km/h (2 Bft) NW 6,8 C 10,6 C
10.10.2012 14:00 10,6 C 75 % 1013,7 hPa 0,0 l/m 9,9 km/h (2 Bft) W-NW 6,3 C 10,6 C
10.10.2012 15:00 10,7 C 73 % 1013,6 hPa 0,0 l/m 6,9 km/h (2 Bft) W-NW 6,0 C 10,7 C
10.10.2012 16:00 11,2 C 72 % 1013,5 hPa 0,0 l/m 6,8 km/h (2 Bft) W 6,3 C 11,2 C
10.10.2012 17:00 10,5 C 76 % 1013,4 hPa 0,0 l/m 10,8 km/h (2 Bft) W-SW 6,4 C 10,5 C
10.10.2012 18:00 9,8 C 79 % 1013,5 hPa 0,5 l/m 7,1 km/h (2 Bft) W-SW 6,2 C 9,1 C
10.10.2012 19:00 9,4 C 79 % 1013,7 hPa 0,0 l/m 6,9 km/h (2 Bft) W-SW 6,0 C 8,5 C
10.10.2012 20:00 9,0 C 83 % 1014,1 hPa 0,5 l/m 6,7 km/h (2 Bft) W 6,2 C 8,1 C
10.10.2012 21:00 8,2 C 86 % 1014,4 hPa 0,0 l/m 4,2 km/h (1 Bft) W 6,0 C 7,9 C
10.10.2012 22:00 7,4 C 88 % 1014,5 hPa 0,0 l/m 4,6 km/h (1 Bft) W-NW 5,5 C 7,0 C
10.10.2012 23:00 7,1 C 89 % 1014,8 hPa 0,0 l/m 2,9 km/h (1 Bft) W 5,4 C 7,1 C
11.10.2012 00:00 6,5 C 89 % 1014,9 hPa 0,0 l/m 2,7 km/h (1 Bft) W-NW 4,8 C 6,5 C
11.10.2012 01:00 6,0 C 90 % 1015,2 hPa 0,0 l/m 3,0 km/h (1 Bft) W 4,5 C 5,7 C
11.10.2012 02:00 5,5 C 91 % 1015,4 hPa 0,0 l/m 1,5 km/h (1 Bft) W 4,2 C 5,5 C
11.10.2012 03:00 5,1 C 91 % 1015,4 hPa 0,5 l/m 1,6 km/h (1 Bft) W 3,8 C 5,1 C
11.10.2012 04:00 4,8 C 91 % 1015,5 hPa 0,0 l/m 1,6 km/h (1 Bft) W-NW 3,4 C 4,8 C
11.10.2012 05:00 4,4 C 91 % 1015,5 hPa 0,0 l/m 0,7 km/h (0 Bft) W 3,1 C 4,4 C
11.10.2012 06:00 4,5 C 92 % 1015,4 hPa 0,0 l/m 0,8 km/h (0 Bft) W 3,3 C 4,5 C
11.10.2012 07:00 4,6 C 92 % 1015,4 hPa 0,0 l/m 0,6 km/h (0 Bft) W 3,5 C 4,6 C
11.10.2012 08:00 5,2 C 93 % 1015,6 hPa 0,0 l/m 1,8 km/h (1 Bft) W 4,1 C 5,2 C
11.10.2012 09:00 7,1 C 93 % 1016,0 hPa 0,0 l/m 1,8 km/h (1 Bft) W 6,0 C 7,0 C
11.10.2012 10:00 8,5 C 93 % 1016,3 hPa 0,0 l/m 3,8 km/h (1 Bft) W-SW 7,4 C 8,2 C
11.10.2012 11:00 10,0 C 90 % 1016,3 hPa 0,0 l/m 1,8 km/h (1 Bft) SW 8,4 C 9,9 C
11.10.2012 12:00 11,7 C 83 % 1015,9 hPa 0,0 l/m 1,7 km/h (1 Bft) N 9,0 C 11,7 C
11.10.2012 13:00 13,2 C 74 % 1015,4 hPa 0,0 l/m 2,9 km/h (1 Bft) N-NO 8,7 C 13,2 C
11.10.2012 14:00 13,4 C 69 % 1015,0 hPa 0,0 l/m 1,2 km/h (1 Bft) O-SO 7,8 C 13,4 C
11.10.2012 15:00 11,5 C 75 % 1014,9 hPa 0,5 l/m 4,0 km/h (1 Bft) O-NO 7,3 C 11,5 C
11.10.2012 16:00 10,4 C 81 % 1014,7 hPa 0,0 l/m 2,1 km/h (1 Bft) NO 7,3 C 10,4 C
11.10.2012 17:00 10,8 C 80 % 1014,3 hPa 0,0 l/m 1,5 km/h (1 Bft) O-SO 7,5 C 10,8 C
11.10.2012 18:00 9,9 C 83 % 1014,2 hPa 0,0 l/m 0,7 km/h (0 Bft) O-SO 7,0 C 9,9 C
11.10.2012 19:00 8,9 C 86 % 1014,3 hPa 0,0 l/m 1,4 km/h (1 Bft) O-NO 6,6 C 8,9 C
11.10.2012 20:00 7,8 C 87 % 1014,4 hPa 0,0 l/m 2,6 km/h (1 Bft) O-SO 5,9 C 7,8 C
11.10.2012 21:00 6,9 C 89 % 1014,6 hPa 0,0 l/m 1,8 km/h (1 Bft) O-SO 5,2 C 6,9 C
11.10.2012 22:00 6,3 C 90 % 1014,6 hPa 0,0 l/m 2,9 km/h (1 Bft) O-SO 4,8 C 6,2 C
11.10.2012 23:00 5,7 C 91 % 1014,6 hPa 0,0 l/m 2,4 km/h (1 Bft) O-SO 4,3 C 5,7 C
12.10.2012 00:00 5,1 C 91 % 1014,3 hPa 0,0 l/m 4,4 km/h (1 Bft) O-SO 3,7 C 4,7 C
12.10.2012 01:00 4,5 C 92 % 1014,1 hPa 0,0 l/m 3,2 km/h (1 Bft) O-SO 3,3 C 4,3 C
12.10.2012 02:00 3,8 C 92 % 1013,8 hPa 0,0 l/m 2,3 km/h (1 Bft) O-SO 2,6 C 3,7 C
12.10.2012 03:00 3,7 C 92 % 1013,4 hPa 0,0 l/m 4,2 km/h (1 Bft) O-NO 2,6 C 3,1 C
12.10.2012 04:00 3,7 C 93 % 1012,9 hPa 0,0 l/m 6,1 km/h (2 Bft) O-NO 2,7 C 2,3 C
12.10.2012 05:00 3,6 C 93 % 1012,6 hPa 0,0 l/m 5,5 km/h (1 Bft) O-SO 2,6 C 2,7 C
12.10.2012 06:00 3,2 C 93 % 1012,2 hPa 0,0 l/m 5,0 km/h (1 Bft) O-NO 2,2 C 2,4 C
12.10.2012 07:00 2,9 C 93 % 1012,0 hPa 0,0 l/m 5,2 km/h (1 Bft) O-NO 1,9 C 1,9 C
12.10.2012 08:00 3,3 C 93 % 1011,8 hPa 0,0 l/m 9,4 km/h (2 Bft) SO 2,3 C 1,0 C
12.10.2012 09:00 4,4 C 93 % 1011,6 hPa 0,0 l/m 7,9 km/h (2 Bft) O 3,3 C 2,7 C
12.10.2012 10:00 6,3 C 89 % 1011,3 hPa 0,0 l/m 9,7 km/h (2 Bft) SO 4,7 C 4,5 C
12.10.2012 11:00 8,3 C 82 % 1010,8 hPa 0,0 l/m 10,4 km/h (2 Bft) O 5,5 C 6,7 C
12.10.2012 12:00 9,5 C 78 % 1010,0 hPa 0,0 l/m 10,0 km/h (2 Bft) O 5,8 C 8,2 C
12.10.2012 13:00 10,7 C 74 % 1009,2 hPa 0,0 l/m 9,1 km/h (2 Bft) S-SO 6,2 C 10,7 C
12.10.2012 14:00 11,5 C 71 % 1008,5 hPa 0,0 l/m 12,6 km/h (3 Bft) SO 6,5 C 11,5 C
12.10.2012 15:00 11,4 C 72 % 1008,1 hPa 0,0 l/m 10,6 km/h (2 Bft) SO 6,4 C 11,4 C
12.10.2012 16:00 11,1 C 76 % 1007,9 hPa 0,5 l/m 7,7 km/h (2 Bft) SO 7,0 C 11,1 C
12.10.2012 17:00 10,1 C 82 % 1007,9 hPa 2,1 l/m 5,2 km/h (1 Bft) SO 7,2 C 10,0 C
12.10.2012 18:00 9,3 C 88 % 1008,2 hPa 1,6 l/m 6,3 km/h (2 Bft) SO 7,4 C 8,7 C
12.10.2012 19:00 9,1 C 90 % 1008,2 hPa 0,5 l/m 4,4 km/h (1 Bft) S-SO 7,6 C 8,8 C
12.10.2012 20:00 9,4 C 91 % 1008,0 hPa 0,5 l/m 4,1 km/h (1 Bft) S-SO 8,0 C 9,1 C
12.10.2012 21:00 9,6 C 92 % 1008,1 hPa 0,0 l/m 4,0 km/h (1 Bft) S 8,3 C 9,4 C
12.10.2012 22:00 9,6 C 92 % 1008,3 hPa 0,0 l/m 4,3 km/h (1 Bft) S 8,4 C 9,3 C
12.10.2012 23:00 9,8 C 92 % 1008,7 hPa 0,0 l/m 10,8 km/h (2 Bft) W-SW 8,6 C 8,3 C
13.10.2012 00:00 10,1 C 89 % 1009,1 hPa 0,0 l/m 11,9 km/h (2 Bft) W-SW 8,4 C 10,0 C
13.10.2012 01:00 10,0 C 88 % 1009,7 hPa 0,0 l/m 15,7 km/h (3 Bft) W-SW 8,1 C 9,1 C
13.10.2012 02:00 9,7 C 87 % 1010,2 hPa 0,0 l/m 14,5 km/h (3 Bft) W-SW 7,7 C 7,7 C
13.10.2012 03:00 9,2 C 87 % 1010,5 hPa 0,0 l/m 13,5 km/h (3 Bft) W-SW 7,0 C 7,2 C
13.10.2012 04:00 8,2 C 86 % 1011,0 hPa 0,0 l/m 10,5 km/h (2 Bft) SW 6,1 C 6,6 C
13.10.2012 05:00 7,3 C 88 % 1011,4 hPa 0,0 l/m 8,0 km/h (2 Bft) S-SW 5,4 C 6,0 C
13.10.2012 06:00 6,8 C 88 % 1011,8 hPa 0,0 l/m 7,6 km/h (2 Bft) W-SW 5,0 C 5,6 C
13.10.2012 07:00 6,5 C 88 % 1012,1 hPa 0,0 l/m 7,6 km/h (2 Bft) SW 4,7 C 5,3 C
13.10.2012 08:00 6,8 C 88 % 1012,4 hPa 0,0 l/m 10,0 km/h (2 Bft) SW 5,1 C 5,1 C
13.10.2012 09:00 8,0 C 86 % 1012,6 hPa 0,0 l/m 9,3 km/h (2 Bft) SW 5,8 C 6,5 C
13.10.2012 10:00 9,5 C 82 % 1012,7 hPa 0,0 l/m 10,2 km/h (2 Bft) W 6,5 C 8,1 C
13.10.2012 11:00 10,8 C 77 % 1012,6 hPa 0,0 l/m 12,6 km/h (3 Bft) S-SW 7,0 C 10,8 C
13.10.2012 12:00 12,0 C 74 % 1012,2 hPa 0,0 l/m 9,1 km/h (2 Bft) SW 7,4 C 12,0 C
13.10.2012 13:00 13,1 C 70 % 1011,7 hPa 0,0 l/m 8,5 km/h (2 Bft) S-SW 7,8 C 13,1 C
13.10.2012 14:00 14,2 C 65 % 1011,3 hPa 0,0 l/m 10,4 km/h (2 Bft) S-SW 7,6 C 14,2 C
13.10.2012 15:00 14,7 C 64 % 1010,7 hPa 0,0 l/m 8,0 km/h (2 Bft) S 7,9 C 14,7 C
13.10.2012 16:00 14,4 C 66 % 1010,0 hPa 0,0 l/m 8,7 km/h (2 Bft) S-SW 8,0 C 14,4 C
13.10.2012 17:00 12,9 C 72 % 1009,5 hPa 0,0 l/m 6,5 km/h (2 Bft) S 7,9 C 12,9 C
13.10.2012 18:00 11,4 C 77 % 1009,1 hPa 0,0 l/m 3,9 km/h (1 Bft) S-SO 7,5 C 11,4 C
13.10.2012 19:00 10,3 C 80 % 1008,7 hPa 0,0 l/m 3,0 km/h (1 Bft) S-SO 6,9 C 10,3 C
13.10.2012 20:00 9,5 C 81 % 1008,3 hPa 0,0 l/m 4,3 km/h (1 Bft) S-SO 6,4 C 9,2 C
13.10.2012 21:00 8,7 C 82 % 1007,9 hPa 0,0 l/m 2,7 km/h (1 Bft) SO 5,9 C 8,7 C
13.10.2012 22:00 7,7 C 84 % 1007,3 hPa 0,0 l/m 3,2 km/h (1 Bft) O-SO 5,2 C 7,6 C
13.10.2012 23:00 8,2 C 84 % 1006,8 hPa 0,0 l/m 4,9 km/h (1 Bft) SO 5,7 C 7,7 C
14.10.2012 00:00 8,0 C 84 % 1006,0 hPa 0,0 l/m 3,1 km/h (1 Bft) O-SO 5,4 C 7,8 C
14.10.2012 01:00 7,6 C 85 % 1004,9 hPa 0,0 l/m 3,4 km/h (1 Bft) SO 5,2 C 7,4 C
14.10.2012 02:00 7,3 C 85 % 1004,0 hPa 0,0 l/m 3,4 km/h (1 Bft) O-SO 5,1 C 7,1 C
14.10.2012 03:00 7,9 C 85 % 1003,5 hPa 0,0 l/m 6,7 km/h (2 Bft) S 5,5 C 6,9 C
14.10.2012 04:00 8,4 C 84 % 1003,1 hPa 0,5 l/m 5,8 km/h (2 Bft) S-SO 5,8 C 7,8 C
14.10.2012 05:00 8,0 C 87 % 1002,7 hPa 0,0 l/m 4,0 km/h (1 Bft) S 6,0 C 7,8 C
14.10.2012 06:00 7,9 C 89 % 1002,6 hPa 0,5 l/m 6,5 km/h (2 Bft) S-SW 6,1 C 6,9 C
14.10.2012 07:00 7,8 C 89 % 1002,9 hPa 0,0 l/m 4,8 km/h (1 Bft) S-SW 6,1 C 7,4 C
14.10.2012 08:00 7,9 C 89 % 1002,9 hPa 0,0 l/m 7,2 km/h (2 Bft) S-SW 6,2 C 6,9 C
14.10.2012 09:00 8,4 C 86 % 1003,2 hPa 0,0 l/m 9,0 km/h (2 Bft) S-SW 6,3 C 7,0 C
14.10.2012 10:00 9,3 C 82 % 1003,1 hPa 0,0 l/m 11,1 km/h (2 Bft) S-SW 6,3 C 7,8 C
14.10.2012 11:00 10,9 C 74 % 1003,1 hPa 0,0 l/m 13,0 km/h (3 Bft) W 6,4 C 10,9 C
14.10.2012 12:00 10,7 C 72 % 1003,2 hPa 0,0 l/m 12,7 km/h (3 Bft) SW 5,9 C 10,7 C
14.10.2012 13:00 11,8 C 67 % 1002,6 hPa 0,0 l/m 9,8 km/h (2 Bft) SW 5,9 C 11,8 C
14.10.2012 14:00 11,8 C 65 % 1002,3 hPa 0,0 l/m 9,2 km/h (2 Bft) W-SW 5,6 C 11,8 C
14.10.2012 15:00 11,5 C 67 % 1002,2 hPa 0,0 l/m 3,9 km/h (1 Bft) SW 5,6 C 11,5 C
14.10.2012 16:00 11,9 C 64 % 1002,1 hPa 0,0 l/m 6,5 km/h (2 Bft) S-SW 5,3 C 11,9 C
14.10.2012 17:00 11,6 C 66 % 1001,9 hPa 0,0 l/m 2,2 km/h (1 Bft) SO 5,4 C 11,6 C
14.10.2012 18:00 10,0 C 71 % 1001,8 hPa 0,0 l/m 1,7 km/h (1 Bft) SO 4,9 C 10,0 C
14.10.2012 19:00 9,0 C 75 % 1001,8 hPa 0,0 l/m 4,1 km/h (1 Bft) SO 4,8 C 8,7 C
14.10.2012 20:00 8,9 C 75 % 1001,6 hPa 0,0 l/m 3,2 km/h (1 Bft) SO 4,7 C 8,8 C
14.10.2012 21:00 8,4 C 77 % 1001,6 hPa 0,0 l/m 2,2 km/h (1 Bft) O-SO 4,6 C 8,4 C
14.10.2012 22:00 8,3 C 80 % 1001,6 hPa 0,0 l/m 2,6 km/h (1 Bft) S-SO 5,0 C 8,3 C
14.10.2012 23:00 8,1 C 83 % 1001,6 hPa 1,0 l/m 1,3 km/h (1 Bft) S-SO 5,4 C 8,1 C
Min-Datum _ 12.10.12 09.10.12 14.10.12 - 08.10.12 - 09.10.12 12.10.12
_ Min-Zeit 07:21 14:41 20:26 - 06:01 - 04:06 08:31
Minimum _ 2,9 C 55 % 1001,4 hPa - 0,0 km/h (0 Bft) - 1,6 C -1,1 C
Max-Datum _ 13.10.12 11.10.12 08.10.12 12.10.12 09.10.12 - 11.10.12 13.10.12
_ Max-Zeit 15:51 08:31 10:11 17:11 15:26 - 13:21 15:51
Maximum _ 15,2 C 93 % 1020,3 hPa 2,1 l/m 33,8 km/h
W (5 Bft)
- 9,4 C 15,2 C
Durchschnitt _ 8,5 C 82 % 1011,7 hPa #9,8 l/m 6,3 km/h (2 Bft) W 5,5 C 8,0 C
(c) by David Heller